Terug naar catalogus

STARLINK-5964

ActiefCommunicatieVLEO
NORAD 56009·PAYLOAD·🇺🇸 United States

Gelanceerd Mar 24, 2023 vanaf Cape Canaveral Space Force Station

Loading…

Volgende Passages (komende 24 uur)

TLE

VersSource: CelesTrak SupGP

Epoch: Sep 15, 2026, 02:12 UTC

1 56009C 23042Z   26258.09215278 -.00026870  00000+0 -97298-3 0  2588
2 56009  43.0037  73.3883 0001840 272.0934 169.0909 15.27600272    18

Volg STARLINK-5964 in realtime met AllMySat

Download on the App Store